Regional Weather Roundup
Issued by NWS

Home | Current Version | Previous Version | Graphics & Text | Print | Product List | Glossary On
Versions: 1 2 3 4 5 6 7 8 9 10 11 12 13 14 15 16 17 18 19 20 21 22 23 24 25 26 27 28 29 30 31 32 33 34 35 36 37 38 39 40 41 42 43 44 45 46 47 48 49 50
000
ASUS43 KLMK 231602
RWRKY
KENTUCKY REGIONAL WEATHER ROUNDUP
NATIONAL WEATHER SERVICE LOUISVILLE KY
1100 AM EST THU FEB 23 2017

NOTE "FAIR" INDICATES FEW OR NO CLOUDS BELOW 12,000 FEET
WITH NO SIGNIFICANT WEATHER AND/OR OBSTRUCTIONS TO VISIBILITY.

KYZ001>023-026-027-061>063-070>075-231700-
WESTERN AND SOUTH CENTRAL KENTUCKY

CITY           SKY/WX    TMP DP  RH WIND       PRES   REMARKS
PADUCAH        CLOUDY    65  56  72 S9        29.79S
HENDERSON      MOSUNNY   68  57  68 S14       29.79S
OWENSBORO      MOSUNNY   67  59  75 S12       29.81F
HOPKINSVILLE   CLOUDY    64  59  82 S9        29.83F
BOWLING GREEN  CLOUDY    64  57  78 S13       29.86F
GLASGOW        NOT AVBL
$$

KYZ024-025-028>034-038-045-046-053-231700-
NORTH CENTRAL KENTUCKY

CITY           SKY/WX    TMP DP  RH WIND       PRES   REMARKS
LOUISVILLE/SDF CLOUDY    67  56  67 S10       29.83S
LOUISVILLE/LOU CLOUDY    65  57  75 S7        29.84R
FORT KNOX      CLOUDY    63  58  82 S12       29.82F
$$

KYZ035>037-039>044-047>052-055>060-089>105-231700-
NORTHEAST KENTUCKY

CITY           SKY/WX    TMP DP  RH WIND       PRES   REMARKS
LEXINGTON      CLOUDY    60  55  83 S10       29.87F
COVINGTON      PTSUNNY   63  57  81 SW14      29.81S
FRANKFORT      CLOUDY    63  55  75 S10       29.85S
$$

KYZ054-064>069-076>088-106>120-231700-
SOUTHEAST KENTUCKY

CITY           SKY/WX    TMP DP  RH WIND       PRES   REMARKS
JACKSON        CLOUDY    60  53  77 CALM      29.90S
LONDON         CLOUDY    57  53  86 S3        29.90F
SOMERSET       CLOUDY    61  55  82 S6        29.90F
MIDDLESBORO    CLOUDY    59  55  87 CALM      29.93F
MONTICELLO     CLOUDY    64  57  78 N8        29.90F
$$





USA.gov is the U.S. government's official web portal to all federal, state and local government web resources and services.